SURFSAT (43614 NORAD) Tracking and Keplerian Element Data

This shows tracking and keplerian element data for the satellite.

Feedback or suggestion? Click here.




ElementValue
Catalog43614
NameSURFSAT
Epoch Orbit3410
Epoch Day115.63803788
Epoch Year2019
RAAN341.3758
Inclination93.028
Eccentricity0.0017566
Argument of Perigee146.1422
Mean Anonmoly214.0957
Mean Motion15.37280399
Decay Rate2.553E-05
L11 43614U 18070B 19115.63803788 .00002553 00000-0 69858-4 0 9999
L22 43614 93.0280 341.3758 0017566 146.1422 214.0957 15.37280399 34101

Live tracking and technical data element details for SURFSAT (NORAD 43614). SURFSAT can be tracked NOW for your location showing map with azimuth and elevation plus other details from your city location.

Track the satellite on the map from your city or location and see movement details for azimuth, elevation, latitude, longitude, range, height, and movement on the map or in text.







IsCatalogInMostPopularTable: catalog: 43614, numindb: 95
Update: records affected: 1



GetName: 43614 SURFSAT

Hit Count: updated at: Fri, 26 Apr 2019 16:38:50 GMT